Regional Weather Roundup
Issued by NWS Albany, NY

Home | Current Version | Previous Version | Text Only | Print | Product List | Glossary On
Versions: 1 2 3 4 5 6 7 8 9 10 11 12 13 14 15 16 17 18 19 20 21 22 23 24 25 26 27 28 29 30 31 32 33 34 35 36 37 38 39 40 41 42 43 44 45 46 47 48 49 50
000
ASUS41 KALY 230710
RWRALY

NEW YORK STATE HOURLY WEATHER ROUNDUP
NATIONAL WEATHER SERVICE ALBANY NY
200 AM EST FRI FEB 23 2018

NOTE: "FAIR" INDICATES FEW OR NO CLOUDS BELOW 12,000 FEET WITH NO
SIGNIFICANT WEATHER AND/OR NO OBSTRUCTIONS TO VISIBILITY.

NYZ032-033-038>043-046>054-057>066-NYZ062>081-082-084-230800-
EAST


CITY           SKY/WX    TMP DP  RH WIND       PRES   REMARKS
ALBANY         MOCLDY    23  19  85 CALM      30.73R
GLENS FALLS    FAIR      19  17  92 CALM      30.71S
POUGHKEEPSIE   CLOUDY    30  28  92 CALM      30.68F
NEWBURGH       CLOUDY    30  30 100 VRB6      30.68R WCI  24
MONTGOMERY     CLOUDY    31  29  92 NE5       30.66S WCI  26
WHITE PLAINS   MOCLDY    33  31  92 E5        30.66S WCI  29
ISLIP          CLOUDY    35  33  92 NE10      30.67S WCI  27
NEW YORK CITY  CLOUDY    37  32  82 NE13      30.68R WCI  29
CENTRAL PARK   CLOUDY    37  32  82 NE9       30.69  WCI  30
$$

NYZ005>009-017-018-044>046-055-056-230800-
CENTRAL


CITY           SKY/WX    TMP DP  RH WIND       PRES   REMARKS
FULTON         MOCLDY    31  29  92 CALM      30.63F
SYRACUSE       CLOUDY    31  31 100 NE8       30.62F WCI  23
ROME           CLOUDY    31  29  92 E7        30.66F WCI  24
ELMIRA         CLOUDY    35  33  92 NE6       30.57S WCI  30
BINGHAMTON     FOG       29  29 100 E6        30.54F VSB 1/4 WCI  23
MONTICELLO     CLOUDY    29  28  96 E8        30.59F WCI  21
$$

NYZ026>034-041>043-087-230800-
NORTH


CITY           SKY/WX    TMP DP  RH WIND       PRES   REMARKS
WATERTOWN      FAIR      22  19  89 NE7       30.66F WCI  13
FORT DRUM      NOT AVBL
OGDENSBURG     FAIR      18  17  94 CALM      30.69R
MASSENA        FAIR      16  14  92 CALM      30.71F
SARANAC LAKE   FAIR      14  13  95 MISG      30.58F
PLATTSBURGH    FAIR      19  14  81 SW5       30.71F WCI  12
$$

NYZ001>004-010>016-019>021-085-230800-
WEST


CITY           SKY/WX    TMP DP  RH WIND       PRES   REMARKS
NIAGARA FALLS  CLOUDY    35  29  78 E10       30.53F WCI  27
BUFFALO        CLOUDY    34  31  88 E12       30.53S WCI  25
DUNKIRK        CLOUDY    34  32  92 N8        30.49S WCI  27
JAMESTOWN        N/A    N/A N/A N/A MISG        N/A
WELLSVILLE     CLOUDY    32  32 100 SE9       30.49S FOG     WCI  24
ROCHESTER      CLOUDY    33  31  92 E10       30.59S WCI  25
PENN YAN       CLOUDY    32  29  88 CALM      30.58S FOG
$$

             KEY
       WCI = WIND CHILL INDEX
       VSB = VISIBILITY
       HX  = HEAT INDEX
$$



USA.gov is the U.S. government's official web portal to all federal, state and local government web resources and services.